• Em Portugal
  • Lista de países
  • Para 7 dias
  • Temperatura da água
  • Mapas de satélite
  • Mapa do tempo
  • Widgets de tempo
  • user-avatar
    Iniciar Sessão

    Previsão horária em Scherbovskiy

    Hoje, 16 Julho, Segunda-feira

    Tempo Temperatura Precipitação Vento Pressão Humidade
    00:00 +19°C° 1,4 mm 2 m/s 740 mmHg 95%
    01:00 +19°C° 1,4 mm 3 m/s 740 mmHg 96%
    02:00 +19°C° 0 mm 2 m/s 740 mmHg 96%
    03:00 +19°C° 0,3 mm 3 m/s 740 mmHg 96%
    04:00 +19°C° 0,3 mm 3 m/s 740 mmHg 96%
    05:00 +19°C° 0,3 mm 4 m/s 740 mmHg 96%
    06:00 +21°C° 0,7 mm 4 m/s 740 mmHg 92%
    07:00 +22°C° 0,7 mm 4 m/s 740 mmHg 88%
    08:00 +23°C° 0 mm 4 m/s 740 mmHg 84%
    09:00 +25°C° 1,3 mm 4 m/s 740 mmHg 81%
    10:00 +26°C° 1,3 mm 4 m/s 740 mmHg 78%
    11:00 +27°C° 1,3 mm 4 m/s 740 mmHg 76%
    12:00 +27°C° 0,7 mm 4 m/s 739 mmHg 74%
    13:00 +27°C° 0,7 mm 4 m/s 739 mmHg 74%
    14:00 +27°C° 0 mm 4 m/s 740 mmHg 74%
    15:00 +27°C° 0,8 mm 3 m/s 740 mmHg 77%
    16:00 +26°C° 0,8 mm 3 m/s 740 mmHg 80%
    17:00 +26°C° 0,8 mm 3 m/s 740 mmHg 82%
    18:00 +25°C° 0,5 mm 3 m/s 739 mmHg 85%
    19:00 +24°C° 0,5 mm 3 m/s 739 mmHg 87%
    20:00 +21°C° 0,5 mm 3 m/s 739 mmHg 90%
    21:00 +21°C° 0,6 mm 3 m/s 739 mmHg 91%
    22:00 +21°C° 0,6 mm 3 m/s 739 mmHg 92%
    23:00 +20°C° 0,6 mm 3 m/s 739 mmHg 94%

    Amanhã, 17 Julho, Terça-feira

    Tempo Temperatura Precipitação Vento Pressão Humidade
    00:00 +20°C° 0,5 mm 3 m/s 738 mmHg 94%
    01:00 +20°C° 0,5 mm 3 m/s 738 mmHg 95%
    02:00 +20°C° 0,5 mm 3 m/s 738 mmHg 95%
    03:00 +20°C° 0,6 mm 3 m/s 738 mmHg 95%
    04:00 +20°C° 0,6 mm 4 m/s 738 mmHg 95%
    05:00 +20°C° 0,6 mm 4 m/s 738 mmHg 95%
    06:00 +21°C° 0,4 mm 4 m/s 738 mmHg 93%
    07:00 +22°C° 0,4 mm 5 m/s 738 mmHg 90%
    08:00 +23°C° 0,4 mm 5 m/s 737 mmHg 88%
    09:00 +24°C° 0,4 mm 6 m/s 737 mmHg 85%
    10:00 +24°C° 0,4 mm 6 m/s 737 mmHg 83%
    11:00 +26°C° 0,4 mm 6 m/s 737 mmHg 81%
    12:00 +26°C° 0,7 mm 5 m/s 737 mmHg 82%
    13:00 +26°C° 0,7 mm 5 m/s 736 mmHg 84%
    14:00 +26°C° 0,7 mm 5 m/s 736 mmHg 85%
    15:00 +26°C° 0,5 mm 5 m/s 736 mmHg 86%
    16:00 +25°C° 0,5 mm 4 m/s 736 mmHg 87%
    17:00 +25°C° 0,5 mm 4 m/s 736 mmHg 88%
    18:00 +23°C° 0,2 mm 4 m/s 736 mmHg 90%
    19:00 +22°C° 0,2 mm 3 m/s 736 mmHg 92%
    20:00 +21°C° 0,2 mm 3 m/s 736 mmHg 95%
    21:00 +21°C° 0 mm 3 m/s 736 mmHg 95%
    22:00 +20°C° 0 mm 3 m/s 736 mmHg 96%
    23:00 +20°C° 0 mm 3 m/s 736 mmHg 97%

    Depois de amanhã, 18 Julho, Quarta-feira

    Tempo Temperatura Precipitação Vento Pressão Humidade
    00:00 +20°C° 0 mm 3 m/s 736 mmHg 97%
    01:00 +20°C° 0 mm 3 m/s 736 mmHg 97%
    02:00 +19°C° 0 mm 4 m/s 736 mmHg 97%
    03:00 +20°C° 0 mm 4 m/s 735 mmHg 97%
    04:00 +20°C° 0 mm 4 m/s 735 mmHg 96%
    05:00 +20°C° 0 mm 5 m/s 735 mmHg 96%
    06:00 +20°C° 0,1 mm 5 m/s 735 mmHg 95%
    07:00 +20°C° 0,1 mm 5 m/s 735 mmHg 93%
    08:00 +21°C° 0,1 mm 5 m/s 735 mmHg 92%
    09:00 +21°C° 0,2 mm 5 m/s 735 mmHg 92%
    10:00 +21°C° 0,2 mm 5 m/s 735 mmHg 92%
    11:00 +21°C° 0,2 mm 5 m/s 735 mmHg 92%
    12:00 +21°C° 0,2 mm 5 m/s 735 mmHg 90%
    13:00 +22°C° 0,2 mm 5 m/s 735 mmHg 88%
    14:00 +22°C° 0,2 mm 5 m/s 735 mmHg 87%
    15:00 +23°C° 0,2 mm 5 m/s 734 mmHg 85%
    16:00 +23°C° 0,2 mm 5 m/s 734 mmHg 84%
    17:00 +23°C° 0,2 mm 5 m/s 734 mmHg 83%
    18:00 +22°C° 0,1 mm 4 m/s 734 mmHg 87%
    19:00 +21°C° 0,1 mm 3 m/s 734 mmHg 91%
    20:00 +20°C° 0,1 mm 3 m/s 735 mmHg 95%
    21:00 +19°C° 0 mm 3 m/s 735 mmHg 96%
    22:00 +19°C° 0 mm 3 m/s 735 mmHg 96%
    23:00 +18°C° 0 mm 3 m/s 735 mmHg 97%

    19 Julho, Quinta-feira

    Tempo Temperatura Precipitação Vento Pressão Humidade
    00:00 +18°C° 0 mm 2 m/s 735 mmHg 98%
    01:00 +18°C° 0 mm 2 m/s 735 mmHg 98%
    02:00 +18°C° 0 mm 2 m/s 735 mmHg 98%
    03:00 +18°C° 0 mm 2 m/s 735 mmHg 98%
    04:00 +18°C° 0 mm 2 m/s 735 mmHg 97%
    05:00 +18°C° 0 mm 2 m/s 735 mmHg 97%
    06:00 +19°C° 0,1 mm 2 m/s 735 mmHg 96%
    07:00 +19°C° 0,1 mm 2 m/s 735 mmHg 94%
    08:00 +21°C° 0,1 mm 1 m/s 735 mmHg 92%
    09:00 +21°C° 0,1 mm 1 m/s 735 mmHg 90%
    10:00 +21°C° 0,1 mm 2 m/s 735 mmHg 87%
    11:00 +23°C° 0,1 mm 2 m/s 735 mmHg 84%
    12:00 +24°C° 0,1 mm 1 m/s 735 mmHg 79%
    13:00 +25°C° 0,1 mm 1 m/s 735 mmHg 74%
    14:00 +26°C° 0,1 mm 1 m/s 735 mmHg 69%
    15:00 +26°C° 0,7 mm 1 m/s 735 mmHg 71%
    16:00 +26°C° 0,7 mm 1 m/s 735 mmHg 74%
    17:00 +26°C° 0,7 mm 2 m/s 735 mmHg 76%
    18:00 +24°C° 0,3 mm 1 m/s 736 mmHg 81%
    19:00 +23°C° 0,3 mm 1 m/s 736 mmHg 85%
    20:00 +22°C° 0,3 mm 1 m/s 736 mmHg 90%
    21:00 +21°C° 0 mm 1 m/s 736 mmHg 91%
    22:00 +21°C° 0 mm 1 m/s 736 mmHg 92%
    23:00 +20°C° 0 mm 1 m/s 736 mmHg 94%

    20 Julho, Sexta-feira

    Tempo Temperatura Precipitação Vento Pressão Humidade
    00:00 +20°C° 0 mm 1 m/s 736 mmHg 94%
    01:00 +19°C° 0 mm 1 m/s 736 mmHg 95%
    02:00 +19°C° 0 mm 1 m/s 736 mmHg 95%
    03:00 +19°C° 0 mm 1 m/s 736 mmHg 96%
    04:00 +20°C° 0 mm 1 m/s 736 mmHg 96%
    05:00 +20°C° 0 mm 1 m/s 737 mmHg 96%
    06:00 +20°C° 0 mm 2 m/s 737 mmHg 92%
    07:00 +21°C° 0 mm 2 m/s 737 mmHg 88%
    08:00 +24°C° 0 mm 2 m/s 737 mmHg 84%
    09:00 +24°C° 0,9 mm 2 m/s 737 mmHg 81%
    10:00 +25°C° 0,9 mm 3 m/s 737 mmHg 78%
    11:00 +26°C° 0,9 mm 3 m/s 737 mmHg 75%
    12:00 +26°C° 0,5 mm 3 m/s 737 mmHg 74%
    13:00 +27°C° 0,5 mm 3 m/s 737 mmHg 73%
    14:00 +27°C° 0,5 mm 3 m/s 737 mmHg 72%
    15:00 +27°C° 0 mm 3 m/s 737 mmHg 73%
    16:00 +27°C° 0 mm 3 m/s 737 mmHg 74%
    17:00 +27°C° 0 mm 2 m/s 737 mmHg 75%
    18:00 +25°C° 0,3 mm 2 m/s 737 mmHg 80%
    19:00 +24°C° 0,3 mm 2 m/s 737 mmHg 86%
    20:00 +21°C° 0,3 mm 2 m/s 737 mmHg 91%
    21:00 +21°C° 0 mm 2 m/s 737 mmHg 93%
    22:00 +20°C° 0 mm 2 m/s 737 mmHg 94%
    23:00 +20°C° 0 mm 2 m/s 737 mmHg 95%

    21 Julho, Sábado

    Tempo Temperatura Precipitação Vento Pressão Humidade
    00:00 +19°C° 0 mm 2 m/s 737 mmHg 96%
    01:00 +19°C° 0 mm 2 m/s 737 mmHg 96%
    02:00 +19°C° 0 mm 2 m/s 737 mmHg 97%
    03:00 +19°C° 0 mm 2 m/s 738 mmHg 97%
    04:00 +19°C° 0 mm 2 m/s 738 mmHg 97%
    05:00 +19°C° 0 mm 2 m/s 738 mmHg 97%
    06:00 +20°C° 0 mm 2 m/s 738 mmHg 94%
    07:00 +22°C° 0 mm 3 m/s 738 mmHg 90%
    08:00 +24°C° 0 mm 3 m/s 738 mmHg 86%
    09:00 +25°C° 0,3 mm 3 m/s 738 mmHg 83%
    10:00 +26°C° 0,3 mm 3 m/s 738 mmHg 80%
    11:00 +26°C° 0,3 mm 4 m/s 739 mmHg 77%
    12:00 +27°C° 0,5 mm 3 m/s 738 mmHg 74%
    13:00 +28°C° 0,5 mm 3 m/s 738 mmHg 72%
    14:00 +28°C° 0,5 mm 3 m/s 738 mmHg 69%
    15:00 +28°C° 0,6 mm 3 m/s 738 mmHg 71%
    16:00 +28°C° 0,6 mm 2 m/s 738 mmHg 74%
    17:00 +27°C° 0,6 mm 2 m/s 738 mmHg 77%
    18:00 +26°C° 0,6 mm 2 m/s 739 mmHg 82%
    19:00 +24°C° 0,6 mm 2 m/s 739 mmHg 87%
    20:00 +23°C° 0,6 mm 2 m/s 739 mmHg 91%
    21:00 +21°C° 0 mm 2 m/s 739 mmHg 93%
    22:00 +21°C° 0 mm 2 m/s 739 mmHg 94%
    23:00 +20°C° 0 mm 2 m/s 739 mmHg 96%
    Mostrar mais